Find Starlink 38139

NORAD ID: 100236 Int'l Des: 2026-177 Owner: SPXS Country: US Constellation: starlink operational

Current View

Loading 3D Globe...

About Starlink 38139

Starlink 38139 (NORAD 100236) is a starlink constellation satellite launched Aug 4, 2026 by SPXS of US. with a mass of 575.00 kg.

Upcoming Passes

Passes for default location (London). Set your location on the main map for personalized predictions.

Altitude History

Loading altitude history...

Two-Line Element Set

1 A0236U 26177Z 26237.13564200 .00191609 00000-0 12576-2 0 9994
2 A0236 97.2849 287.1461 0003859 338.8504 21.2601 15.75171294 3240
Epoch: Aug 25, 2026 • Age: 23 hours

Current Status

Altitude 346.2 km
Apogee / Perigee N/A
Velocity 7.70 km/s
Sub-Earth Point -12.67°S, 75.6°W
Launch Date Aug 4, 2026
Age 21 days
Type internet

Technical Details

Classification Payload
Mass 575.00 kg
Dry Mass 530.00 kg
Total Mass 575.00 kg
Length 0.30 m
Diameter 4.10 m
Span 29.00 m
Shape Box + pan
Manufacturer SPXS
Bus Type Starlink V2MO
Phase Status In Orbit
Owner/State SPXS/US

Most Searched